Location: Casalecchio di Reno
(44.4760°N, 11.2757°E)
Time: 14:54:10
(UTC+02:00)

QB50P2 - Visible Passes

Search period start: 18 June 2024 00:00
Search period end: 28 June 2024 00:00
Orbit: 564 x 578 km, 98.0° (Epoch: 17 June)

Date Brightness Start Highest point End Pass type
(mag) Time Alt. Az. Time Alt. Az. Time Alt. Az.
18 Jun ? 03:49:43 10° NNE 03:53:44 59° E 03:57:09 14° S visible
19 Jun ? 03:52:02 10° NNE 03:56:03 63° ESE 03:59:30 14° S visible
20 Jun ? 03:54:19 10° NNE 03:58:21 67° E 04:01:50 13° S visible
21 Jun ? 03:56:36 10° NNE 04:00:39 71° ESE 04:04:08 13° S visible
22 Jun ? 03:58:53 10° NNE 04:02:56 75° ESE 04:06:26 13° S visible
23 Jun ? 04:01:09 10° NNE 04:05:12 79° ESE 04:08:44 13° S visible
24 Jun ? 04:03:24 10° NNE 04:07:28 84° ESE 04:11:00 13° SSW visible
25 Jun ? 04:05:39 10° NNE 04:09:42 88° E 04:13:16 13° SSW visible
26 Jun ? 04:07:53 10° NNE 04:11:57 87° W 04:15:31 13° SSW visible
27 Jun ? 04:10:07 10° NNE 04:14:10 83° WNW 04:17:45 13° SSW visible
